Weather History for KMTJ - January, 2013

Change the Weather History Date:

Friday, January 11, 2013

  Actual Average Record
Temperature  
Mean Temperature 23 °F 26 °F  
Max Temperature 40 °F 38 °F 55 °F (2000)
Min Temperature 5 °F 14 °F -9 °F (2011)
Degree Days  
Heating Degree Days 42 39  
Month to date heating degree days 562 439  
Since 1 July heating degree days 2839 3047  
Cooling Degree Days 0 0  
Month to date cooling degree days 0 0  
Year to date cooling degree days 0 0  
Moisture  
Dew Point 13 °F    
Average Humidity 58    
Maximum Humidity 73    
Minimum Humidity 42    
Precipitation  
Precipitation T in 0.02 in 0.20 in (2005)
Month to date precipitation T 0.24  
Year to date precipitation T 0.24  
Sea Level Pressure  
Sea Level Pressure 29.66 in    
Wind  
Wind Speed 10 mph (SW)    
Max Wind Speed 33 mph    
Max Gust Speed 44 mph    
Visibility 8 miles    
Events Snow    
T = Trace of Precipitation, MM = Missing Value Source: NWS Daily Summary

Daily Weather History Graph

Daily Weather History Graph

Search for Another Location

Airport or City:

Trip Planner

Search our weather history database for the weather conditions in past years. The results will help you decide how hot, cold, wet, or windy it might be!

Date:

Astronomy

Jan. 11, 2013 Rise Set
Actual Time 7:28 AM MST 5:10 PM MST
Civil Twilight 6:59 AM MST 5:40 PM MST
Nautical Twilight 6:26 AM MST 6:12 PM MST
Astronomical Twilight 5:54 AM MST 6:44 PM MST
Moon 7:04 AM MST (1/11) 5:31 PM MST (1/11)
Length of Visible Light 10h 40m
Length of Day
9h 42m
Waning Crescent, 0% of the Moon is Illuminated
Jan 11
Waning Crescent
Jan 11
New
Jan 18
First Quarter
Jan 26
Full
Feb 3
Last Quarter

Hourly Weather History & Observations

Time (MST) Temp. Windchill Dew Point Humidity Pressure Visibility Wind Dir Wind Speed Gust Speed Precip Events Conditions
12:53 AM 37.9 °F 30.0 °F 21.0 °F 51% 29.46 in 10.0 mi South 12.7 mph 28.8 mph N/A   Clear
1:53 AM 37.0 °F 28.1 °F 21.0 °F 52% 29.41 in 10.0 mi South 15.0 mph - N/A   Partly Cloudy
2:53 AM 35.1 °F 26.4 °F 26.1 °F 70% 29.35 in 10.0 mi West 12.7 mph - N/A   Overcast
3:21 AM 33.8 °F 24.8 °F 30.2 °F 87% 29.45 in 1.8 mi West 12.7 mph 27.6 mph 0.00 in Snow Light Snow
3:27 AM 32.0 °F 22.5 °F 30.2 °F 93% 29.44 in 1.0 mi WSW 12.7 mph - 0.00 in Snow Light Snow
3:34 AM 30.2 °F 18.5 °F 28.4 °F 93% 29.46 in 1.0 mi WSW 17.3 mph 28.8 mph 0.00 in Snow Light Snow
3:44 AM 30.2 °F 19.8 °F 26.6 °F 86% 29.46 in 1.5 mi WSW 13.8 mph - 0.00 in Snow Light Snow
3:47 AM 30.2 °F 20.8 °F 26.6 °F 86% 29.46 in 2.0 mi WSW 11.5 mph - 0.00 in Snow Light Snow
3:53 AM 30.0 °F 22.4 °F 27.0 °F 88% 29.42 in 6.0 mi West 8.1 mph - 0.00 in Snow Light Snow
4:53 AM 28.0 °F 13.9 °F 19.9 °F 72% 29.45 in 7.0 mi West 23.0 mph 33.4 mph 0.00 in   Mostly Cloudy
5:53 AM 27.0 °F 15.6 °F 15.1 °F 61% 29.49 in 10.0 mi WSW 13.8 mph 20.7 mph 0.00 in   Overcast
6:53 AM 25.0 °F 13.6 °F 9.0 °F 51% 29.53 in 10.0 mi SW 12.7 mph 21.9 mph N/A   Scattered Clouds
7:53 AM 23.0 °F 14.7 °F 8.1 °F 53% 29.62 in 10.0 mi WSW 6.9 mph - N/A   Mostly Cloudy
8:53 AM 24.1 °F 10.1 °F 9.0 °F 53% 29.66 in 10.0 mi West 18.4 mph 23.0 mph 0.00 in   Scattered Clouds
9:53 AM 24.1 °F 13.7 °F 6.1 °F 46% 29.69 in 10.0 mi SW 10.4 mph 29.9 mph N/A   Partly Cloudy
10:53 AM 25.0 °F 13.1 °F 5.0 °F 43% 29.68 in 10.0 mi SW 13.8 mph - N/A   Clear
11:50 AM 23.0 °F 8.0 °F 12.2 °F 63% 29.66 in 8.0 mi SSW 20.7 mph 28.8 mph 0.00 in Snow Light Snow
11:53 AM 23.0 °F 10.1 °F 12.0 °F 63% 29.65 in 8.0 mi SSW 15.0 mph 26.5 mph 0.00 in Snow Light Snow
1:53 PM 26.1 °F 21.9 °F 7.0 °F 44% 29.67 in 10.0 mi Variable 3.5 mph - N/A   Scattered Clouds
2:53 PM 23.0 °F 11.7 °F 9.0 °F 55% 29.73 in 10.0 mi SSW 11.5 mph 18.4 mph N/A   Scattered Clouds
3:53 PM 23.0 °F 11.1 °F 7.0 °F 50% 29.78 in 10.0 mi WSW 12.7 mph - N/A   Mostly Cloudy
4:53 PM 19.9 °F 12.1 °F 9.0 °F 62% 29.83 in 10.0 mi SSE 5.8 mph - N/A   Mostly Cloudy
5:53 PM 19.0 °F 9.0 °F 6.1 °F 57% 29.87 in 10.0 mi West 8.1 mph - N/A   Mostly Cloudy
6:53 PM 19.9 °F - 5.0 °F 52% 29.90 in 10.0 mi Calm Calm - N/A   Mostly Cloudy
7:53 PM 16.0 °F 10.4 °F 6.1 °F 65% 29.94 in 10.0 mi SE 3.5 mph - N/A   Scattered Clouds
8:53 PM 12.9 °F 3.8 °F 3.9 °F 67% 29.96 in 10.0 mi SSE 5.8 mph - N/A   Clear
9:53 PM 12.9 °F 0.7 °F 3.0 °F 65% 29.97 in 10.0 mi SSE 9.2 mph - N/A   Clear
10:53 PM 9.0 °F -0.9 °F 1.9 °F 73% 30.00 in 10.0 mi SE 5.8 mph - N/A   Clear
11:53 PM 5.0 °F -8.1 °F -0.9 °F 76% 30.04 in 10.0 mi SE 8.1 mph - N/A   Scattered Clouds